Time,TemperatureF,DewpointF,PressureIn,WindDirection,WindDirectionDegrees,WindSpeedMPH,WindSpeedGustMPH,Humidity,HourlyPrecipIn,Conditions,Clouds,dailyrainin,SoftwareType,DateUTC
2013-05-15 00:02:00,74.3,71.2,30.04,SE,135,13.0,16.0,90,0.00,,,0.00,meteohub,2013-05-15 05:02:00,
2013-05-15 00:07:00,74.3,71.2,30.04,SSE,149,10.0,16.0,90,0.00,,,0.00,meteohub,2013-05-15 05:07:00,
2013-05-15 00:12:00,74.3,71.2,30.04,SSE,155,6.0,16.0,90,0.00,,,0.00,meteohub,2013-05-15 05:12:00,
2013-05-15 00:18:00,74.3,71.2,30.03,SE,133,6.0,16.0,90,0.00,,,0.00,meteohub,2013-05-15 05:18:00,
2013-05-15 00:23:00,74.3,71.2,30.03,SE,124,12.0,16.0,90,0.00,,,0.00,meteohub,2013-05-15 05:23:00,
2013-05-15 00:28:00,74.3,71.4,30.03,ESE,122,11.0,16.0,91,0.00,,,0.00,meteohub,2013-05-15 05:28:00,
2013-05-15 00:33:00,74.3,71.4,30.02,SE,127,14.0,16.0,91,0.00,,,0.00,meteohub,2013-05-15 05:33:00,
2013-05-15 00:38:00,74.3,71.2,30.01,SE,133,15.0,18.0,90,0.00,,,0.00,meteohub,2013-05-15 05:38:00,
2013-05-15 00:43:00,74.1,71.1,30.01,SE,146,9.0,18.0,90,0.00,,,0.00,meteohub,2013-05-15 05:43:00,
2013-05-15 00:48:00,74.1,71.1,30.00,SE,127,16.0,18.0,90,0.00,,,0.00,meteohub,2013-05-15 05:48:00,
2013-05-15 00:53:00,74.1,71.1,29.99,ESE,117,13.0,18.0,90,0.00,,,0.00,meteohub,2013-05-15 05:53:00,
2013-05-15 00:58:00,74.1,71.1,29.99,SE,127,11.0,20.0,90,0.00,,,0.00,meteohub,2013-05-15 05:58:00,
2013-05-15 01:03:00,74.1,71.1,29.99,ESE,120,17.0,20.0,90,0.00,,,0.00,meteohub,2013-05-15 06:03:00,
2013-05-15 01:08:00,74.1,71.1,29.99,SE,131,10.0,20.0,90,0.00,,,0.00,meteohub,2013-05-15 06:08:00,
2013-05-15 01:13:00,74.1,71.2,29.99,SE,127,9.0,19.0,91,0.00,,,0.00,meteohub,2013-05-15 06:13:00,
2013-05-15 01:18:00,74.1,71.2,29.99,SE,143,12.0,19.0,91,0.00,,,0.00,meteohub,2013-05-15 06:18:00,
2013-05-15 01:23:00,74.1,71.2,29.99,SE,135,7.0,19.0,91,0.00,,,0.00,meteohub,2013-05-15 06:23:00,
2013-05-15 01:28:00,74.1,71.2,29.99,ESE,119,11.0,18.0,91,0.00,,,0.00,meteohub,2013-05-15 06:28:00,
2013-05-15 01:33:00,74.1,71.2,29.98,SE,135,9.0,19.0,91,0.00,,,0.00,meteohub,2013-05-15 06:33:00,
2013-05-15 01:38:00,73.9,71.1,29.98,SE,131,11.0,19.0,91,0.00,,,0.00,meteohub,2013-05-15 06:38:00,
2013-05-15 01:43:00,74.1,71.2,29.98,SSE,149,11.0,18.0,91,0.00,,,0.00,meteohub,2013-05-15 06:43:00,
2013-05-15 01:48:00,73.9,71.1,29.98,SE,143,9.0,18.0,91,0.00,,,0.00,meteohub,2013-05-15 06:48:00,
2013-05-15 01:53:00,73.9,71.1,29.98,SE,143,10.0,18.0,91,0.00,,,0.00,meteohub,2013-05-15 06:53:00,
2013-05-15 01:58:00,74.1,71.2,29.97,SE,132,12.0,17.0,91,0.00,,,0.00,meteohub,2013-05-15 06:58:00,
2013-05-15 02:03:00,74.1,71.2,29.96,SSE,153,13.0,18.0,91,0.00,,,0.00,meteohub,2013-05-15 07:03:00,
2013-05-15 02:08:00,74.1,71.2,29.96,SE,146,13.0,18.0,91,0.00,,,0.00,meteohub,2013-05-15 07:08:00,
2013-05-15 02:13:00,74.1,71.2,29.96,SE,124,13.0,21.0,91,0.00,,,0.00,meteohub,2013-05-15 07:13:00,
2013-05-15 02:18:00,74.1,71.2,29.95,SE,138,13.0,23.0,91,0.00,,,0.00,meteohub,2013-05-15 07:18:00,
2013-05-15 02:23:00,74.1,71.2,29.95,SE,133,11.0,23.0,91,0.00,,,0.00,meteohub,2013-05-15 07:23:00,
2013-05-15 02:28:00,74.3,71.4,29.96,SSE,148,14.0,23.0,91,0.00,,,0.00,meteohub,2013-05-15 07:28:00,
2013-05-15 02:33:00,74.3,71.4,29.96,ESE,123,10.0,20.0,91,0.00,,,0.00,meteohub,2013-05-15 07:33:00,
2013-05-15 02:38:00,74.3,71.4,29.96,SSE,160,11.0,19.0,91,0.00,,,0.00,meteohub,2013-05-15 07:38:00,
2013-05-15 02:43:00,74.3,71.4,29.95,SE,127,18.0,18.0,91,0.00,,,0.00,meteohub,2013-05-15 07:43:00,
2013-05-15 02:49:00,74.3,71.4,29.95,SE,136,11.0,18.0,91,0.00,,,0.00,meteohub,2013-05-15 07:49:00,
2013-05-15 02:54:00,74.3,71.4,29.95,SE,136,18.0,19.0,91,0.00,,,0.00,meteohub,2013-05-15 07:54:00,
2013-05-15 02:59:00,74.1,71.2,29.94,SSE,150,11.0,23.0,91,0.00,,,0.00,meteohub,2013-05-15 07:59:00,
2013-05-15 03:04:00,74.1,71.2,29.95,SSE,167,9.0,28.0,91,0.00,,,0.00,meteohub,2013-05-15 08:04:00,
2013-05-15 03:09:00,74.1,71.2,29.96,South,181,8.0,28.0,91,0.00,,,0.00,meteohub,2013-05-15 08:09:00,
2013-05-15 03:14:00,74.5,71.6,29.98,SSE,162,9.0,23.0,91,0.00,,,0.00,meteohub,2013-05-15 08:14:00,
2013-05-15 03:19:00,74.3,71.4,29.98,SE,124,6.0,21.0,91,0.00,,,0.00,meteohub,2013-05-15 08:19:00,
2013-05-15 03:24:00,74.5,71.6,29.99,SSE,158,6.0,18.0,91,0.00,,,0.00,meteohub,2013-05-15 08:24:00,
2013-05-15 03:29:00,74.5,71.6,30.00,SSW,194,4.0,18.0,91,0.00,,,0.00,meteohub,2013-05-15 08:29:00,
2013-05-15 03:34:00,74.5,71.6,30.00,SSE,155,1.0,15.0,91,0.00,,,0.00,meteohub,2013-05-15 08:34:00,
2013-05-15 03:39:00,74.5,71.6,30.00,South,174,4.0,15.0,91,0.00,,,0.00,meteohub,2013-05-15 08:39:00,
2013-05-15 03:44:00,74.5,71.6,30.01,SSE,153,6.0,15.0,91,0.00,,,0.00,meteohub,2013-05-15 08:44:00,
2013-05-15 03:49:00,74.5,72.0,30.00,SE,141,7.0,9.0,92,0.00,,,0.00,meteohub,2013-05-15 08:49:00,
2013-05-15 03:54:00,74.7,72.1,30.01,SW,219,7.0,9.0,92,0.00,,,0.00,meteohub,2013-05-15 08:54:00,
2013-05-15 03:59:00,74.5,72.0,30.01,SSW,211,4.0,9.0,92,0.00,,,0.00,meteohub,2013-05-15 08:59:00,
2013-05-15 04:05:00,74.5,72.0,30.01,SSW,204,6.0,9.0,92,0.00,,,0.00,meteohub,2013-05-15 09:05:00,
2013-05-15 04:10:00,74.5,72.0,30.00,South,171,2.0,10.0,92,0.00,,,0.00,meteohub,2013-05-15 09:10:00,
2013-05-15 04:15:00,74.7,71.8,30.00,SSE,149,6.0,11.0,91,0.00,,,0.00,meteohub,2013-05-15 09:15:00,
2013-05-15 04:20:00,74.7,71.8,30.00,South,169,5.0,14.0,91,0.00,,,0.00,meteohub,2013-05-15 09:20:00,
2013-05-15 04:25:00,74.7,72.1,30.00,SSW,195,8.0,14.0,92,0.00,,,0.00,meteohub,2013-05-15 09:25:00,
2013-05-15 04:30:00,74.7,71.8,30.00,South,184,5.0,14.0,91,0.00,,,0.00,meteohub,2013-05-15 09:30:00,
2013-05-15 04:35:00,74.5,72.0,30.00,SSW,200,5.0,10.0,92,0.00,,,0.00,meteohub,2013-05-15 09:35:00,
2013-05-15 04:40:00,74.5,72.0,29.99,ESE,115,5.0,10.0,92,0.00,,,0.00,meteohub,2013-05-15 09:40:00,
2013-05-15 04:45:00,74.5,71.6,29.99,SSW,194,6.0,10.0,91,0.00,,,0.00,meteohub,2013-05-15 09:45:00,
2013-05-15 04:50:00,74.5,72.0,29.99,SSW,201,5.0,9.0,92,0.00,,,0.00,meteohub,2013-05-15 09:50:00,
2013-05-15 04:55:00,74.7,71.8,29.99,ESE,109,3.0,9.0,91,0.00,,,0.00,meteohub,2013-05-15 09:55:00,
2013-05-15 05:00:00,74.7,71.8,29.99,SSE,163,6.0,9.0,91,0.00,,,0.00,meteohub,2013-05-15 10:00:00,
2013-05-15 05:05:00,74.5,72.0,29.99,SSE,153,4.0,9.0,92,0.00,,,0.00,meteohub,2013-05-15 10:05:00,
2013-05-15 05:10:00,74.5,72.0,29.99,SSE,167,3.0,9.0,92,0.00,,,0.00,meteohub,2013-05-15 10:10:00,
2013-05-15 05:15:00,74.5,72.0,29.99,SE,146,3.0,7.0,92,0.00,,,0.00,meteohub,2013-05-15 10:15:00,
2013-05-15 05:20:00,74.5,72.0,29.99,South,183,5.0,7.0,92,0.00,,,0.00,meteohub,2013-05-15 10:20:00,
2013-05-15 05:25:00,74.7,72.1,29.99,SE,136,3.0,7.0,92,0.00,,,0.00,meteohub,2013-05-15 10:25:00,
2013-05-15 05:30:00,74.5,72.0,29.99,SSE,150,6.0,7.0,92,0.00,,,0.00,meteohub,2013-05-15 10:30:00,
2013-05-15 05:35:00,74.5,72.0,29.98,SSE,163,5.0,7.0,92,0.00,,,0.00,meteohub,2013-05-15 10:35:00,
2013-05-15 05:40:00,74.5,72.0,29.98,SE,143,6.0,8.0,92,0.00,,,0.00,meteohub,2013-05-15 10:40:00,
2013-05-15 05:45:00,74.5,72.0,29.98,SE,137,4.0,8.0,92,0.00,,,0.00,meteohub,2013-05-15 10:45:00,
2013-05-15 05:50:00,74.5,72.3,29.97,ESE,123,6.0,8.0,93,0.00,,,0.00,meteohub,2013-05-15 10:50:00,
2013-05-15 05:55:00,74.5,72.3,29.97,ESE,111,7.0,11.0,93,0.00,,,0.00,meteohub,2013-05-15 10:55:00,
2013-05-15 06:00:00,74.3,72.1,29.96,SE,124,6.0,11.0,93,0.00,,,0.00,meteohub,2013-05-15 11:00:00,
2013-05-15 06:05:00,74.1,72.0,29.96,ESE,115,10.0,14.0,93,0.00,,,0.00,meteohub,2013-05-15 11:05:00,
2013-05-15 06:10:00,74.1,72.3,29.96,ESE,122,9.0,14.0,94,0.00,,,0.00,meteohub,2013-05-15 11:10:00,
2013-05-15 06:16:00,73.9,72.1,29.95,SE,143,8.0,15.0,94,0.01,,,0.01,meteohub,2013-05-15 11:16:00,
2013-05-15 06:21:00,73.8,72.3,29.94,ESE,111,10.0,15.0,95,0.02,,,0.02,meteohub,2013-05-15 11:21:00,
2013-05-15 06:26:00,73.8,72.3,29.94,ESE,104,14.0,18.0,95,0.03,,,0.03,meteohub,2013-05-15 11:26:00,
2013-05-15 06:32:00,72.9,72.0,29.94,ESE,120,12.0,19.0,97,0.04,,,0.04,meteohub,2013-05-15 11:32:00,
2013-05-15 06:37:00,72.9,72.3,29.94,ESE,111,15.0,19.0,98,0.04,,,0.04,meteohub,2013-05-15 11:37:00,
2013-05-15 06:42:00,72.7,72.1,29.93,SE,130,20.0,20.0,98,0.05,,,0.05,meteohub,2013-05-15 11:42:00,
2013-05-15 06:47:00,72.5,72.0,29.93,ESE,108,17.0,23.0,98,0.07,,,0.06,meteohub,2013-05-15 11:47:00,
2013-05-15 06:52:00,72.3,71.8,29.93,SE,136,15.0,23.0,98,0.07,,,0.07,meteohub,2013-05-15 11:52:00,
2013-05-15 06:57:00,72.3,72.0,29.95,SE,143,8.0,23.0,99,0.07,,,0.07,meteohub,2013-05-15 11:57:00,
2013-05-15 07:02:00,72.5,72.1,29.95,ESE,120,12.0,20.0,99,0.07,,,0.07,meteohub,2013-05-15 12:02:00,
2013-05-15 07:07:00,72.5,72.1,29.95,SE,124,12.0,18.0,99,0.07,,,0.07,meteohub,2013-05-15 12:07:00,
2013-05-15 07:12:00,72.5,72.1,29.95,SE,134,6.0,16.0,99,0.06,,,0.07,meteohub,2013-05-15 12:12:00,
2013-05-15 07:18:00,72.7,72.3,29.96,South,174,6.0,17.0,99,0.06,,,0.07,meteohub,2013-05-15 12:18:00,
2013-05-15 07:23:00,72.5,72.1,29.96,ESE,121,1.0,17.0,99,0.05,,,0.07,meteohub,2013-05-15 12:23:00,
2013-05-15 07:28:00,72.3,72.0,29.97,South,188,3.0,17.0,99,0.04,,,0.07,meteohub,2013-05-15 12:28:00,
2013-05-15 07:33:00,72.3,72.0,29.97,SW,228,2.0,12.0,99,0.03,,,0.07,meteohub,2013-05-15 12:33:00,
2013-05-15 07:38:00,72.3,72.0,29.97,SW,225,2.0,10.0,99,0.02,,,0.07,meteohub,2013-05-15 12:38:00,
2013-05-15 07:43:00,72.3,72.0,29.97,SE,141,3.0,10.0,99,0.01,,,0.07,meteohub,2013-05-15 12:43:00,
2013-05-15 07:49:00,72.3,72.0,29.97,SE,138,8.0,10.0,99,0.00,,,0.07,meteohub,2013-05-15 12:49:00,
2013-05-15 07:54:00,72.3,72.0,29.97,SSE,158,11.0,12.0,99,0.00,,,0.07,meteohub,2013-05-15 12:54:00,
2013-05-15 07:59:00,72.5,72.1,29.98,SSW,200,7.0,12.0,99,0.00,,,0.07,meteohub,2013-05-15 12:59:00,
2013-05-15 08:04:00,72.7,72.3,29.97,SE,134,7.0,13.0,99,0.00,,,0.07,meteohub,2013-05-15 13:04:00,
2013-05-15 08:09:00,72.9,72.5,29.97,SE,143,10.0,13.0,99,0.00,,,0.07,meteohub,2013-05-15 13:09:00,
2013-05-15 08:15:00,72.7,72.3,29.97,SE,134,4.0,14.0,99,0.00,,,0.07,meteohub,2013-05-15 13:15:00,
2013-05-15 08:21:00,72.7,72.3,29.98,South,169,9.0,15.0,99,0.00,,,0.07,meteohub,2013-05-15 13:21:00,
2013-05-15 08:26:00,72.7,72.3,29.97,ESE,116,11.0,15.0,99,0.00,,,0.07,meteohub,2013-05-15 13:26:00,
2013-05-15 08:31:00,72.9,72.5,29.97,SE,141,5.0,15.0,99,0.00,,,0.07,meteohub,2013-05-15 13:31:00,
2013-05-15 08:36:00,72.9,72.5,29.97,SE,134,10.0,14.0,99,0.00,,,0.07,meteohub,2013-05-15 13:36:00,
2013-05-15 08:41:00,72.9,72.5,29.97,SSE,152,4.0,14.0,99,0.00,,,0.07,meteohub,2013-05-15 13:41:00,
2013-05-15 08:46:00,73.0,73.0,29.98,SE,135,10.0,12.0,100,0.00,,,0.07,meteohub,2013-05-15 13:46:00,
2013-05-15 08:51:00,73.2,73.2,29.98,SSE,149,6.0,12.0,100,0.00,,,0.07,meteohub,2013-05-15 13:51:00,
2013-05-15 08:56:00,73.2,72.9,29.98,SSW,207,6.0,11.0,99,0.00,,,0.07,meteohub,2013-05-15 13:56:00,
2013-05-15 09:02:00,73.4,73.4,29.98,SE,143,2.0,10.0,100,0.00,,,0.07,meteohub,2013-05-15 14:02:00,
2013-05-15 09:07:00,73.4,73.4,29.99,SSE,166,6.0,9.0,100,0.00,,,0.07,meteohub,2013-05-15 14:07:00,
2013-05-15 09:12:00,73.6,73.6,29.99,South,181,7.0,8.0,100,0.00,,,0.07,meteohub,2013-05-15 14:12:00,
2013-05-15 09:17:00,73.8,73.8,29.99,South,186,8.0,9.0,100,0.00,,,0.07,meteohub,2013-05-15 14:17:00,
2013-05-15 09:22:00,73.8,73.8,29.99,SSE,162,3.0,10.0,100,0.00,,,0.07,meteohub,2013-05-15 14:22:00,
2013-05-15 09:27:00,73.8,73.8,30.00,South,173,6.0,13.0,100,0.00,,,0.07,meteohub,2013-05-15 14:27:00,
2013-05-15 09:33:00,74.1,74.1,30.00,SE,146,7.0,13.0,100,0.00,,,0.07,meteohub,2013-05-15 14:33:00,
2013-05-15 09:38:00,74.3,74.3,30.00,SSE,158,10.0,13.0,100,0.00,,,0.07,meteohub,2013-05-15 14:38:00,
2013-05-15 09:43:00,74.5,74.5,30.00,South,181,8.0,14.0,100,0.00,,,0.07,meteohub,2013-05-15 14:43:00,
2013-05-15 09:48:00,74.8,74.8,30.00,SE,130,10.0,15.0,100,0.00,,,0.07,meteohub,2013-05-15 14:48:00,
2013-05-15 09:54:00,75.6,75.6,29.99,SE,143,12.0,18.0,100,0.00,,,0.07,meteohub,2013-05-15 14:54:00,
2013-05-15 09:59:00,75.9,75.9,29.99,South,184,11.0,18.0,100,0.00,,,0.07,meteohub,2013-05-15 14:59:00,
2013-05-15 10:04:00,76.5,76.1,29.99,SSE,162,13.0,18.0,99,0.00,,,0.07,meteohub,2013-05-15 15:04:00,
2013-05-15 10:09:00,77.2,75.4,29.99,SE,143,9.0,18.0,94,0.00,,,0.07,meteohub,2013-05-15 15:09:00,
2013-05-15 10:14:00,77.5,74.7,29.99,South,176,14.0,19.0,91,0.00,,,0.07,meteohub,2013-05-15 15:14:00,
2013-05-15 10:20:00,77.5,74.3,29.99,SSE,165,9.0,19.0,90,0.00,,,0.07,meteohub,2013-05-15 15:20:00,
2013-05-15 10:25:00,77.2,73.9,29.99,SE,146,12.0,19.0,90,0.00,,,0.07,meteohub,2013-05-15 15:25:00,
2013-05-15 10:30:00,77.2,74.3,29.99,SSE,163,11.0,17.0,91,0.00,,,0.07,meteohub,2013-05-15 15:30:00,
2013-05-15 10:35:00,77.4,74.1,29.99,SE,136,12.0,17.0,90,0.00,,,0.07,meteohub,2013-05-15 15:35:00,
2013-05-15 10:40:00,77.5,74.1,29.99,SSE,150,8.0,17.0,89,0.00,,,0.07,meteohub,2013-05-15 15:40:00,
2013-05-15 10:45:00,77.5,74.1,29.99,SE,124,9.0,17.0,89,0.00,,,0.07,meteohub,2013-05-15 15:45:00,
2013-05-15 10:50:00,77.9,74.5,30.00,ESE,108,12.0,18.0,89,0.00,,,0.07,meteohub,2013-05-15 15:50:00,
2013-05-15 10:56:00,78.4,74.7,30.00,SE,145,14.0,18.0,88,0.00,,,0.07,meteohub,2013-05-15 15:56:00,
2013-05-15 11:01:00,78.6,74.1,30.00,SSE,166,8.0,18.0,86,0.00,,,0.07,meteohub,2013-05-15 16:01:00,
2013-05-15 11:06:00,78.6,74.5,30.00,SSE,149,10.0,18.0,87,0.00,,,0.07,meteohub,2013-05-15 16:06:00,
2013-05-15 11:11:00,79.0,74.5,29.99,SE,137,7.0,18.0,86,0.00,,,0.07,meteohub,2013-05-15 16:11:00,
2013-05-15 11:17:00,79.2,74.7,29.99,South,187,13.0,17.0,86,0.00,,,0.07,meteohub,2013-05-15 16:17:00,
2013-05-15 11:22:00,79.3,74.5,30.00,SSE,152,10.0,17.0,85,0.00,,,0.07,meteohub,2013-05-15 16:22:00,
2013-05-15 11:27:00,79.5,74.3,29.99,SE,141,10.0,17.0,84,0.00,,,0.07,meteohub,2013-05-15 16:27:00,
2013-05-15 11:32:00,79.3,73.8,29.99,South,177,15.0,16.0,83,0.00,,,0.07,meteohub,2013-05-15 16:32:00,
2013-05-15 11:37:00,79.0,74.1,29.99,SE,146,12.0,17.0,85,0.00,,,0.07,meteohub,2013-05-15 16:37:00,
2013-05-15 11:42:00,78.6,73.8,29.99,SE,135,10.0,17.0,85,0.00,,,0.07,meteohub,2013-05-15 16:42:00,
2013-05-15 11:47:00,78.6,74.1,29.99,SSE,156,10.0,19.0,86,0.00,,,0.07,meteohub,2013-05-15 16:47:00,
2013-05-15 11:53:00,78.6,74.1,29.99,SE,133,8.0,19.0,86,0.00,,,0.07,meteohub,2013-05-15 16:53:00,
2013-05-15 11:59:00,78.3,74.1,29.99,SSE,158,14.0,19.0,87,0.00,,,0.07,meteohub,2013-05-15 16:59:00,
2013-05-15 12:04:00,77.9,74.1,29.99,SE,135,8.0,19.0,88,0.00,,,0.07,meteohub,2013-05-15 17:04:00,
2013-05-15 12:10:00,77.5,74.1,29.99,SE,133,9.0,17.0,89,0.00,,,0.07,meteohub,2013-05-15 17:10:00,
2013-05-15 12:15:00,76.8,74.3,29.98,South,169,11.0,16.0,92,0.00,,,0.07,meteohub,2013-05-15 17:15:00,
2013-05-15 12:20:00,76.1,74.5,29.98,SE,141,9.0,16.0,95,0.01,,,0.08,meteohub,2013-05-15 17:20:00,
2013-05-15 12:25:00,75.7,74.8,29.98,SSE,153,12.0,19.0,97,0.01,,,0.08,meteohub,2013-05-15 17:25:00,
2013-05-15 12:30:00,75.9,75.4,29.98,SSE,165,8.0,19.0,98,0.01,,,0.08,meteohub,2013-05-15 17:30:00,
2013-05-15 12:36:00,75.9,75.4,29.98,SE,134,8.0,19.0,98,0.01,,,0.08,meteohub,2013-05-15 17:36:00,
2013-05-15 12:41:00,76.3,75.4,29.98,SE,133,6.0,19.0,97,0.01,,,0.08,meteohub,2013-05-15 17:41:00,
2013-05-15 12:46:00,77.4,75.2,29.97,SE,143,8.0,18.0,93,0.01,,,0.08,meteohub,2013-05-15 17:46:00,
2013-05-15 12:51:00,78.4,75.2,29.97,SSE,150,8.0,16.0,90,0.01,,,0.08,meteohub,2013-05-15 17:51:00,
2013-05-15 12:57:00,78.8,75.0,29.97,East,87,13.0,17.0,88,0.01,,,0.08,meteohub,2013-05-15 17:57:00,
2013-05-15 13:02:00,78.8,74.7,29.97,ESE,123,9.0,17.0,87,0.01,,,0.08,meteohub,2013-05-15 18:02:00,
2013-05-15 13:07:00,78.4,74.3,29.97,SE,146,12.0,17.0,87,0.01,,,0.08,meteohub,2013-05-15 18:07:00,
2013-05-15 13:12:00,78.1,74.5,29.96,South,184,10.0,17.0,89,0.00,,,0.08,meteohub,2013-05-15 18:12:00,
2013-05-15 13:17:00,77.5,74.3,29.96,South,188,11.0,17.0,90,0.00,,,0.08,meteohub,2013-05-15 18:17:00,
2013-05-15 13:22:00,77.7,74.3,29.96,SE,146,11.0,17.0,89,0.00,,,0.08,meteohub,2013-05-15 18:22:00,
2013-05-15 13:27:00,77.7,74.3,29.96,SSE,165,13.0,17.0,89,0.00,,,0.08,meteohub,2013-05-15 18:27:00,
2013-05-15 13:33:00,77.9,74.1,29.96,SSE,163,11.0,20.0,88,0.00,,,0.08,meteohub,2013-05-15 18:33:00,
2013-05-15 13:39:00,77.7,73.9,29.96,South,172,10.0,20.0,88,0.00,,,0.08,meteohub,2013-05-15 18:39:00,
2013-05-15 13:44:00,77.5,74.1,29.96,SSE,153,7.0,20.0,89,0.00,,,0.08,meteohub,2013-05-15 18:44:00,
2013-05-15 13:49:00,77.4,73.9,29.96,SE,136,13.0,20.0,89,0.00,,,0.08,meteohub,2013-05-15 18:49:00,
2013-05-15 13:54:00,77.0,74.1,29.95,SSE,153,8.0,20.0,91,0.00,,,0.08,meteohub,2013-05-15 18:54:00,
2013-05-15 13:59:00,76.8,73.9,29.95,SE,146,7.0,20.0,91,0.00,,,0.08,meteohub,2013-05-15 18:59:00,
2013-05-15 14:04:00,77.0,74.1,29.95,SE,128,6.0,20.0,91,0.00,,,0.08,meteohub,2013-05-15 19:04:00,
2013-05-15 14:09:00,77.7,74.5,29.94,SE,137,11.0,17.0,90,0.00,,,0.08,meteohub,2013-05-15 19:09:00,
2013-05-15 14:14:00,78.1,74.3,29.94,SE,141,12.0,17.0,88,0.00,,,0.08,meteohub,2013-05-15 19:14:00,
2013-05-15 14:19:00,78.4,74.3,29.94,ESE,103,15.0,22.0,87,0.00,,,0.08,meteohub,2013-05-15 19:19:00,
2013-05-15 14:25:00,78.4,74.3,29.94,SSE,150,13.0,23.0,87,0.00,,,0.08,meteohub,2013-05-15 19:25:00,
2013-05-15 14:30:00,78.1,73.9,29.94,East,101,18.0,23.0,87,0.00,,,0.08,meteohub,2013-05-15 19:30:00,
2013-05-15 14:35:00,78.3,74.1,29.93,SE,124,12.0,23.0,87,0.00,,,0.08,meteohub,2013-05-15 19:35:00,
2013-05-15 14:41:00,78.1,74.5,29.93,SE,146,9.0,23.0,89,0.00,,,0.08,meteohub,2013-05-15 19:41:00,
2013-05-15 14:46:00,77.7,74.3,29.92,SE,139,21.0,24.0,89,0.00,,,0.08,meteohub,2013-05-15 19:46:00,
2013-05-15 14:51:00,77.9,74.5,29.91,SE,132,13.0,24.0,89,0.00,,,0.08,meteohub,2013-05-15 19:51:00,
2013-05-15 14:56:00,78.8,75.0,29.91,SE,127,19.0,24.0,88,0.01,,,0.09,meteohub,2013-05-15 19:56:00,
2013-05-15 15:01:00,79.2,75.0,29.91,ESE,120,21.0,24.0,87,0.01,,,0.09,meteohub,2013-05-15 20:01:00,
2013-05-15 15:07:00,79.5,75.0,29.91,SE,126,13.0,24.0,86,0.01,,,0.09,meteohub,2013-05-15 20:07:00,
2013-05-15 15:12:00,79.9,75.0,29.90,SE,141,16.0,24.0,85,0.01,,,0.09,meteohub,2013-05-15 20:12:00,
2013-05-15 15:17:00,80.2,74.7,29.89,SE,138,10.0,24.0,83,0.01,,,0.09,meteohub,2013-05-15 20:17:00,
2013-05-15 15:22:00,80.8,74.8,29.89,SSE,152,15.0,31.0,82,0.01,,,0.09,meteohub,2013-05-15 20:22:00,
2013-05-15 15:27:00,81.1,75.2,29.88,SSE,160,22.0,31.0,82,0.01,,,0.09,meteohub,2013-05-15 20:27:00,
2013-05-15 15:32:00,80.6,75.0,29.88,SE,135,21.0,31.0,83,0.01,,,0.09,meteohub,2013-05-15 20:32:00,
2013-05-15 15:37:00,80.6,74.7,29.87,SE,127,22.0,28.0,82,0.01,,,0.09,meteohub,2013-05-15 20:37:00,
2013-05-15 15:42:00,81.5,75.0,29.87,South,169,13.0,28.0,81,0.01,,,0.09,meteohub,2013-05-15 20:42:00,
2013-05-15 15:47:00,81.5,74.7,29.86,SSE,150,20.0,26.0,80,0.01,,,0.09,meteohub,2013-05-15 20:47:00,
2013-05-15 15:52:00,81.1,74.3,29.86,SSE,166,19.0,26.0,80,0.01,,,0.09,meteohub,2013-05-15 20:52:00,
2013-05-15 15:58:00,81.3,74.5,29.86,SE,141,19.0,26.0,80,0.00,,,0.09,meteohub,2013-05-15 20:58:00,
2013-05-15 16:04:00,81.3,74.5,29.86,ESE,120,23.0,27.0,80,0.00,,,0.09,meteohub,2013-05-15 21:04:00,
2013-05-15 16:09:00,80.8,73.9,29.86,SE,128,25.0,29.0,80,0.00,,,0.09,meteohub,2013-05-15 21:09:00,
2013-05-15 16:14:00,80.4,74.1,29.86,SE,128,19.0,29.0,81,0.00,,,0.09,meteohub,2013-05-15 21:14:00,
2013-05-15 16:19:00,80.4,74.5,29.85,SE,134,21.0,30.0,82,0.00,,,0.09,meteohub,2013-05-15 21:19:00,
2013-05-15 16:24:00,81.1,74.3,29.85,SE,127,17.0,30.0,80,0.00,,,0.09,meteohub,2013-05-15 21:24:00,
2013-05-15 16:30:00,80.8,74.5,29.84,SE,130,20.0,30.0,81,0.00,,,0.09,meteohub,2013-05-15 21:30:00,
2013-05-15 16:35:00,81.1,74.3,29.84,SSE,162,16.0,31.0,80,0.00,,,0.09,meteohub,2013-05-15 21:35:00,
2013-05-15 16:40:00,81.7,74.8,29.84,SE,146,19.0,31.0,80,0.00,,,0.09,meteohub,2013-05-15 21:40:00,
2013-05-15 16:45:00,81.3,74.1,29.84,SE,143,22.0,29.0,79,0.00,,,0.09,meteohub,2013-05-15 21:45:00,
2013-05-15 16:50:00,80.8,73.9,29.84,SSE,160,15.0,29.0,80,0.00,,,0.09,meteohub,2013-05-15 21:50:00,
2013-05-15 16:55:00,80.4,74.1,29.84,SE,146,22.0,29.0,81,0.00,,,0.09,meteohub,2013-05-15 21:55:00,
2013-05-15 17:01:00,80.4,73.8,29.83,SE,130,21.0,29.0,80,0.00,,,0.09,meteohub,2013-05-15 22:01:00,
2013-05-15 17:06:00,80.8,73.9,29.83,SSE,160,21.0,29.0,80,0.00,,,0.09,meteohub,2013-05-15 22:06:00,
2013-05-15 17:11:00,81.0,74.1,29.83,SSE,151,22.0,28.0,80,0.00,,,0.09,meteohub,2013-05-15 22:11:00,
2013-05-15 17:16:00,81.1,73.6,29.84,South,169,19.0,29.0,78,0.00,,,0.09,meteohub,2013-05-15 22:16:00,
2013-05-15 17:21:00,80.8,73.9,29.84,SSE,163,9.0,29.0,80,0.00,,,0.09,meteohub,2013-05-15 22:21:00,
2013-05-15 17:26:00,80.8,73.6,29.84,SE,145,22.0,29.0,79,0.00,,,0.09,meteohub,2013-05-15 22:26:00,
2013-05-15 17:31:00,80.6,73.4,29.84,SE,127,23.0,28.0,79,0.00,,,0.09,meteohub,2013-05-15 22:31:00,
2013-05-15 17:37:00,81.1,73.6,29.84,SE,134,24.0,28.0,78,0.00,,,0.09,meteohub,2013-05-15 22:37:00,
2013-05-15 17:42:00,81.1,73.6,29.84,SSE,166,14.0,28.0,78,0.00,,,0.09,meteohub,2013-05-15 22:42:00,
2013-05-15 17:47:00,81.0,73.4,29.84,SE,124,20.0,26.0,78,0.00,,,0.09,meteohub,2013-05-15 22:47:00,
2013-05-15 17:52:00,80.8,73.6,29.84,SE,124,12.0,26.0,79,0.00,,,0.09,meteohub,2013-05-15 22:52:00,
2013-05-15 17:57:00,80.4,73.2,29.83,SE,146,10.0,26.0,79,0.00,,,0.09,meteohub,2013-05-15 22:57:00,
2013-05-15 18:02:00,80.8,73.2,29.83,SE,143,17.0,26.0,78,0.00,,,0.09,meteohub,2013-05-15 23:02:00,
2013-05-15 18:08:00,80.6,73.0,29.83,SE,141,11.0,26.0,78,0.00,,,0.09,meteohub,2013-05-15 23:08:00,
2013-05-15 18:14:00,80.4,73.2,29.83,South,178,7.0,25.0,79,0.00,,,0.09,meteohub,2013-05-15 23:14:00,
2013-05-15 18:19:00,80.2,73.0,29.83,SE,143,19.0,25.0,79,0.00,,,0.09,meteohub,2013-05-15 23:19:00,
2013-05-15 18:24:00,80.2,73.0,29.83,South,177,19.0,25.0,79,0.00,,,0.09,meteohub,2013-05-15 23:24:00,
2013-05-15 18:29:00,80.4,72.9,29.83,ESE,117,17.0,25.0,78,0.00,,,0.09,meteohub,2013-05-15 23:29:00,
2013-05-15 18:35:00,80.2,72.7,29.83,ESE,105,13.0,24.0,78,0.00,,,0.09,meteohub,2013-05-15 23:35:00,
2013-05-15 18:40:00,80.2,72.7,29.83,SE,143,18.0,24.0,78,0.00,,,0.09,meteohub,2013-05-15 23:40:00,
2013-05-15 18:45:00,80.1,73.0,29.83,SE,130,18.0,22.0,79,0.00,,,0.09,meteohub,2013-05-15 23:45:00,
2013-05-15 18:50:00,79.9,72.9,29.83,SE,130,16.0,23.0,79,0.00,,,0.09,meteohub,2013-05-15 23:50:00,
2013-05-15 18:55:00,79.7,72.7,29.83,SE,145,15.0,25.0,79,0.00,,,0.09,meteohub,2013-05-15 23:55:00,
2013-05-15 19:01:00,79.5,72.9,29.83,SSE,158,13.0,25.0,80,0.00,,,0.09,meteohub,2013-05-16 00:01:00,
2013-05-15 19:06:00,79.3,72.7,29.83,SSE,153,15.0,25.0,80,0.00,,,0.00,meteohub,2013-05-16 00:06:00,
2013-05-15 19:11:00,79.2,72.5,29.83,SE,133,14.0,24.0,80,0.00,,,0.00,meteohub,2013-05-16 00:11:00,
2013-05-15 19:16:00,78.8,72.5,29.83,SSE,153,13.0,22.0,81,0.00,,,0.00,meteohub,2013-05-16 00:16:00,
2013-05-15 19:21:00,78.6,72.7,29.83,SSE,155,13.0,23.0,82,0.00,,,0.00,meteohub,2013-05-16 00:21:00,
2013-05-15 19:27:00,78.4,72.5,29.83,SSE,167,13.0,23.0,82,0.00,,,0.00,meteohub,2013-05-16 00:27:00,
2013-05-15 19:32:00,78.3,72.7,29.83,SE,135,18.0,22.0,83,0.00,,,0.00,meteohub,2013-05-16 00:32:00,
2013-05-15 19:37:00,78.1,72.9,29.84,SSE,163,12.0,21.0,84,0.00,,,0.00,meteohub,2013-05-16 00:37:00,
2013-05-15 19:42:00,77.9,72.7,29.83,South,184,13.0,21.0,84,0.00,,,0.00,meteohub,2013-05-16 00:42:00,
2013-05-15 19:47:00,77.5,72.3,29.83,SSE,158,14.0,20.0,84,0.00,,,0.00,meteohub,2013-05-16 00:47:00,
2013-05-15 19:52:00,77.4,72.1,29.84,SE,143,9.0,20.0,84,0.00,,,0.00,meteohub,2013-05-16 00:52:00,
2013-05-15 19:58:00,77.4,72.1,29.84,SE,130,13.0,21.0,84,0.00,,,0.00,meteohub,2013-05-16 00:58:00,
2013-05-15 20:03:00,77.2,72.3,29.85,SSE,158,11.0,21.0,85,0.00,,,0.00,meteohub,2013-05-16 01:03:00,
2013-05-15 20:08:00,77.0,72.1,29.84,ESE,116,14.0,22.0,85,0.00,,,0.00,meteohub,2013-05-16 01:08:00,
2013-05-15 20:13:00,76.8,72.3,29.84,SE,127,8.0,22.0,86,0.00,,,0.00,meteohub,2013-05-16 01:13:00,
2013-05-15 20:19:00,76.8,72.3,29.85,ESE,119,11.0,20.0,86,0.00,,,0.00,meteohub,2013-05-16 01:19:00,
2013-05-15 20:24:00,76.6,72.1,29.85,SE,127,10.0,18.0,86,0.00,,,0.00,meteohub,2013-05-16 01:24:00,
2013-05-15 20:28:00,76.6,72.5,29.85,SSE,149,7.0,18.0,87,0.00,,,0.00,meteohub,2013-05-16 01:28:00,
2013-05-15 20:34:00,76.5,72.3,29.85,WSW,256,11.0,18.0,87,0.00,,,0.00,meteohub,2013-05-16 01:34:00,
2013-05-15 20:39:00,76.5,72.3,29.85,SSE,150,13.0,18.0,87,0.00,,,0.00,meteohub,2013-05-16 01:39:00,
2013-05-15 20:44:00,76.3,72.1,29.85,SSE,158,13.0,18.0,87,0.00,,,0.00,meteohub,2013-05-16 01:44:00,
2013-05-15 20:49:00,76.3,72.1,29.85,SSE,153,11.0,20.0,87,0.00,,,0.00,meteohub,2013-05-16 01:49:00,
2013-05-15 20:54:00,76.1,72.3,29.85,SE,137,11.0,21.0,88,0.00,,,0.00,meteohub,2013-05-16 01:54:00,
2013-05-15 20:59:00,75.9,72.1,29.85,SE,146,7.0,21.0,88,0.00,,,0.00,meteohub,2013-05-16 01:59:00,
2013-05-15 21:04:00,75.9,72.1,29.85,SE,144,18.0,21.0,88,0.00,,,0.00,meteohub,2013-05-16 02:04:00,
2013-05-15 21:10:00,75.7,72.0,29.85,SE,143,14.0,18.0,88,0.00,,,0.00,meteohub,2013-05-16 02:10:00,
2013-05-15 21:15:00,75.6,72.1,29.84,SE,134,13.0,20.0,89,0.00,,,0.00,meteohub,2013-05-16 02:15:00,
2013-05-15 21:20:00,75.4,72.0,29.84,SE,143,13.0,20.0,89,0.00,,,0.00,meteohub,2013-05-16 02:20:00,
2013-05-15 21:26:00,75.2,71.8,29.84,SSE,158,11.0,20.0,89,0.00,,,0.00,meteohub,2013-05-16 02:26:00,
2013-05-15 21:31:00,75.0,72.0,29.84,SE,131,6.0,20.0,90,0.00,,,0.00,meteohub,2013-05-16 02:31:00,
2013-05-15 21:36:00,75.0,72.0,29.84,SE,130,12.0,19.0,90,0.00,,,0.00,meteohub,2013-05-16 02:36:00,
2013-05-15 21:41:00,74.8,71.8,29.85,SE,143,13.0,18.0,90,0.00,,,0.00,meteohub,2013-05-16 02:41:00,
2013-05-15 21:46:00,74.8,71.8,29.85,SE,137,12.0,19.0,90,0.00,,,0.00,meteohub,2013-05-16 02:46:00,
2013-05-15 21:51:00,74.8,71.8,29.85,SSE,148,15.0,19.0,90,0.00,,,0.00,meteohub,2013-05-16 02:51:00,
2013-05-15 21:56:00,74.8,71.8,29.85,SSE,150,7.0,19.0,90,0.00,,,0.00,meteohub,2013-05-16 02:56:00,
2013-05-15 22:01:00,74.7,71.8,29.85,ESE,109,14.0,21.0,91,0.00,,,0.00,meteohub,2013-05-16 03:01:00,
2013-05-15 22:06:00,74.7,71.8,29.85,SE,146,13.0,21.0,91,0.00,,,0.00,meteohub,2013-05-16 03:06:00,
2013-05-15 22:11:00,74.7,71.8,29.85,SE,142,13.0,21.0,91,0.00,,,0.00,meteohub,2013-05-16 03:11:00,
2013-05-15 22:17:00,74.5,71.6,29.86,SE,124,11.0,21.0,91,0.00,,,0.00,meteohub,2013-05-16 03:17:00,
2013-05-15 22:22:00,74.5,71.6,29.86,SSE,156,13.0,21.0,91,0.00,,,0.00,meteohub,2013-05-16 03:22:00,
2013-05-15 22:27:00,74.7,71.6,29.86,SSE,156,15.0,19.0,90,0.00,,,0.00,meteohub,2013-05-16 03:27:00,
2013-05-15 22:32:00,74.5,71.4,29.86,SE,146,14.0,19.0,90,0.00,,,0.00,meteohub,2013-05-16 03:32:00,
2013-05-15 22:37:00,74.5,71.6,29.86,SE,146,9.0,18.0,91,0.00,,,0.00,meteohub,2013-05-16 03:37:00,
2013-05-15 22:42:00,74.5,71.6,29.86,SE,134,9.0,20.0,91,0.00,,,0.00,meteohub,2013-05-16 03:42:00,
2013-05-15 22:47:00,74.3,71.4,29.86,SE,126,12.0,20.0,91,0.00,,,0.00,meteohub,2013-05-16 03:47:00,
2013-05-15 22:52:00,74.3,71.4,29.86,SSE,150,8.0,20.0,91,0.00,,,0.00,meteohub,2013-05-16 03:52:00,
2013-05-15 22:57:00,74.1,71.2,29.86,SE,124,12.0,17.0,91,0.00,,,0.00,meteohub,2013-05-16 03:57:00,
2013-05-15 23:01:00,74.1,71.2,29.86,SE,137,9.0,17.0,91,0.00,,,0.00,meteohub,2013-05-16 04:01:00,
2013-05-15 23:02:00,74.1,71.2,29.86,SSE,158,9.0,17.0,91,0.00,,,0.00,meteohub,2013-05-16 04:02:00,
2013-05-15 23:07:00,74.1,71.6,29.86,SE,143,8.0,15.0,92,0.00,,,0.00,meteohub,2013-05-16 04:07:00,
2013-05-15 23:12:00,74.1,71.6,29.86,SSE,160,10.0,15.0,92,0.00,,,0.00,meteohub,2013-05-16 04:12:00,
2013-05-15 23:17:00,74.1,71.6,29.86,SE,143,9.0,15.0,92,0.00,,,0.00,meteohub,2013-05-16 04:17:00,
2013-05-15 23:22:00,74.1,71.6,29.86,SSE,155,11.0,15.0,92,0.00,,,0.00,meteohub,2013-05-16 04:22:00,
2013-05-15 23:27:00,73.9,71.4,29.85,SSE,155,16.0,16.0,92,0.00,,,0.00,meteohub,2013-05-16 04:27:00,
2013-05-15 23:32:00,73.9,71.4,29.85,SSE,152,14.0,16.0,92,0.00,,,0.00,meteohub,2013-05-16 04:32:00,
2013-05-15 23:38:00,74.1,71.6,29.85,SSE,157,12.0,17.0,92,0.00,,,0.00,meteohub,2013-05-16 04:38:00,
2013-05-15 23:43:00,74.1,71.2,29.85,SE,146,11.0,17.0,91,0.00,,,0.00,meteohub,2013-05-16 04:43:00,
2013-05-15 23:48:00,74.1,71.2,29.85,SSE,155,13.0,17.0,91,0.00,,,0.00,meteohub,2013-05-16 04:48:00,
2013-05-15 23:53:00,74.1,71.6,29.84,SSE,156,11.0,17.0,92,0.00,,,0.00,meteohub,2013-05-16 04:53:00,
2013-05-15 23:58:00,74.1,71.6,29.84,SSE,162,13.0,17.0,92,0.00,,,0.00,meteohub,2013-05-16 04:58:00,